Weather Roundup
Issued by NWS

Home | Current Version | Previous Version | Graphics & Text | Print | Product List | Glossary Off
Versions: 1 2 3 4 5 6 7 8 9 10 11 12 13 14 15 16 17 18 19 20 21 22 23 24 25 26 27 28 29 30 31 32 33 34 35 36 37 38 39 40 41 42 43 44 45 46 47 48 49 50

000
NZUS93 KARX 300759
HRRWXR

CURRENT HOURLY OBSERVATIONS ACROSS
MUCH OF THE UPPER MISSISSIPPI VALLEY
NATIONAL WEATHER SERVICE LA CROSSE WI
300 AM CDT SAT AUG 30 2014


...SOUTHEAST MINNESOTA...


CITY           SKY/WX    TMP DP  RH WIND       PRES   REMARKS
ROCHESTER      CLOUDY    66  63  90 S6        29.77S
ROCHESTER/MAYO CLOUDY    65  64  97 S5        29.75F
WINONA         CLOUDY    66  64  94 CALM      29.74F
AUSTIN         CLOUDY    66  66 100 W6        29.76S FOG
ALBERT LEA     RAIN      64  64 100 CALM      29.77S
DODGE CENTER   RAIN      68  66  94 W5        29.76S
PRESTON        LGT RAIN  65  65 100 CALM      29.77S
OWATONNA       LGT RAIN  68  66  94 CALM      29.76S
FARIBAULT      CLOUDY    70  63  78 CALM      29.77R
$$

...ELSEWHERE IN MINNESOTA...


CITY           SKY/WX    TMP DP  RH WIND       PRES   REMARKS
MINNEAPOLIS    LGT RAIN  68  67  96 NW5       29.75F FOG
INTNL FALLS    CLOUDY    58  55  90 N10       29.86R
DULUTH         CLOUDY    63  60  90 NE5       29.80S
RED WING       CLOUDY    66  64  94 CALM      29.74R FOG
REDWOOD FALLS  MOCLDY    65  65 100 NW8       29.80S
MANKATO        CLOUDY    66  63  88 W7        29.77S
WORTHINGTON    PTCLDY    66  64  94 NW7       29.85R
FAIRMONT       CLOUDY    64  55  72 NW6       29.80R
$$

...SOUTHWEST WISCONSIN...


CITY           SKY/WX    TMP DP  RH WIND       PRES   REMARKS
LA CROSSE      LGT RAIN  70  67  90 NW5       29.73F FOG
PRAIRIE DU CHI CLOUDY    69  66  91 CALM      29.76S
BOSCOBEL       MOCLDY    70  67  90 S3        29.76S
LONE ROCK      NOT AVBL
PLATTEVILLE    CLOUDY    71  69  95 SW10      29.80S
FORT MC COY    RAIN      67  66  97 W5        29.75S
CAMP DOUGLAS   CLOUDY    68  68 100 SE3       29.74F
VIROQUA        CLOUDY    67  67 100 SW8       29.76S
WIS DELLS      CLOUDY    70  67  89 SW7       29.76S
$$

...ELSEWHERE IN WISCONSIN...


CITY           SKY/WX    TMP DP  RH WIND       PRES   REMARKS
MILWAUKEE      CLOUDY    74  68  81 S9        29.81F
MADISON        MOCLDY    72  68  87 S10       29.78S
GREEN BAY      LGT RAIN  68  66  93 NW8       29.78F
EAU CLAIRE     LGT RAIN  67  66  97 NE3       29.74F
BLACK RVR FLS  RAIN      67  67 100 CALM      29.75R
MEDFORD        LGT RAIN  64  64  99 SE5       29.78F
WAUSAU         LGT RAIN  65  65 100 E3        29.75F FOG
WIS RAPIDS     HVY RAIN  67  67 100 CALM      29.77R VSB 1
MARSHFIELD     LGT RAIN  66  65  96 NE6       29.75F FOG
RICE LAKE      RAIN      64  63  95 CALM      29.77F
$$

...NORTHEAST IOWA...


CITY           SKY/WX    TMP DP  RH WIND       PRES   REMARKS
WATERLOO       CLOUDY    68  66  93 SW9       29.75S
DUBUQUE        MOCLDY    70  69  97 SW15G22   29.80S
DECORAH        CLOUDY    66  66 100 CALM      29.76F FOG
MASON CITY     MOCLDY    66  65  96 NW5       29.79S
CHARLES CITY   CLOUDY    68  66  94 SW5       29.77F FOG
OELWEIN        CLOUDY    68  68 100 SW8       29.78S
$$

...ELSEWHERE IN IOWA...


CITY           SKY/WX    TMP DP  RH WIND       PRES   REMARKS
DES MOINES     MOCLDY    68  65  90 W6        29.80S
IOWA CITY      CLOUDY    69  68  96 S6        29.81S
FORT DODGE     CLOUDY    64  64 100 CALM      29.81R
MARSHALLTOWN   CLOUDY    67  66  97 SW8       29.77S
CEDAR RAPIDS   CLOUDY    68  68 100 SW8       29.79R
$$

...NORTHERN ILLINOIS...


CITY           SKY/WX    TMP DP  RH WIND       PRES   REMARKS
CHICAGO-OHARE  CLOUDY    74  67  78 S13       29.83F
DUPAGE         CLOUDY    74  69  85 S12       29.83S
CHICAGO-MIDWAY CLOUDY    76  70  82 S9        29.84F
MOLINE         MOCLDY    71  69  93 SW10      29.83R
ROCKFORD       CLOUDY    71  67  87 S9        29.83S
STERLING       MOCLDY    70  66  88 SW3       29.83R
PEORIA         PTCLDY    72  69  90 S8        29.86F FOG
$$

NOTE: "FAIR" INDICATES FEW OR NO CLOUDS BELOW 12,000 FEET WITH NO
SIGNIFICANT WEATHER AND/OR OBSTRUCTIONS TO VISIBILITY. WIND
SPEEDS ARE IN MILES-PER-HOUR.



USA.gov is the U.S. government's official web portal to all federal, state and local government web resources and services.